Time,TemperatureF,DewpointF,PressureIn,WindDirection,WindDirectionDegrees,WindSpeedMPH,WindSpeedGustMPH,Humidity,HourlyPrecipIn,Conditions,Clouds,dailyrainin,SoftwareType,DateUTC
2013-03-30 00:02:00,31.0,24.0,30.19,East,90,0.0,0.0,74,0.00,,,0.00,,2013-03-30 05:02:00,
2013-03-30 00:12:00,31.0,24.0,30.19,East,90,0.0,0.0,74,0.00,,,0.00,,2013-03-30 05:12:00,
2013-03-30 00:22:00,31.0,24.0,30.19,East,90,0.0,0.0,74,0.00,,,0.00,,2013-03-30 05:22:00,
2013-03-30 00:32:00,31.0,24.0,30.19,East,90,0.0,0.0,74,0.00,,,0.00,,2013-03-30 05:32:00,
2013-03-30 00:42:00,31.0,24.0,30.19,East,90,0.0,0.0,74,0.00,,,0.00,,2013-03-30 05:42:00,
2013-03-30 00:52:00,31.0,24.0,30.19,East,90,0.0,0.0,75,0.00,,,0.00,,2013-03-30 05:52:00,
2013-03-30 01:02:00,31.0,24.0,30.19,East,90,0.0,1.0,75,0.00,,,0.00,,2013-03-30 06:02:00,
2013-03-30 01:11:00,31.0,24.0,30.19,East,90,0.0,1.0,75,0.00,,,0.00,,2013-03-30 06:11:00,
2013-03-30 01:22:00,31.0,24.0,30.19,East,90,0.0,0.0,74,0.00,,,0.00,,2013-03-30 06:22:00,
2013-03-30 01:32:00,31.0,24.0,30.19,East,90,0.0,0.0,74,0.00,,,0.00,,2013-03-30 06:32:00,
2013-03-30 01:42:00,31.0,24.0,30.19,East,90,0.0,0.0,74,0.00,,,0.00,,2013-03-30 06:42:00,
2013-03-30 01:52:00,31.0,24.0,30.19,East,90,0.0,1.0,74,0.00,,,0.00,,2013-03-30 06:52:00,
2013-03-30 02:02:00,32.0,25.0,30.18,East,90,0.0,0.0,74,0.00,,,0.00,,2013-03-30 07:02:00,
2013-03-30 02:12:00,32.0,25.0,30.18,East,90,0.0,0.0,74,0.00,,,0.00,,2013-03-30 07:12:00,
2013-03-30 02:22:00,32.0,25.0,30.18,East,90,0.0,1.0,74,0.00,,,0.00,,2013-03-30 07:22:00,
2013-03-30 02:32:00,32.0,25.0,30.17,East,90,0.0,0.0,74,0.00,,,0.00,,2013-03-30 07:32:00,
2013-03-30 02:42:00,32.0,25.0,30.17,East,90,0.0,0.0,74,0.00,,,0.00,,2013-03-30 07:42:00,
2013-03-30 02:52:00,32.0,25.0,30.16,East,90,0.0,1.0,75,0.00,,,0.00,,2013-03-30 07:52:00,
2013-03-30 03:02:00,32.0,25.0,30.16,East,90,0.0,1.0,75,0.00,,,0.00,,2013-03-30 08:02:00,
2013-03-30 03:12:00,32.0,25.0,30.16,East,90,0.0,1.0,75,0.00,,,0.00,,2013-03-30 08:12:00,
2013-03-30 03:21:00,32.0,25.0,30.15,East,90,0.0,1.0,75,0.00,,,0.00,,2013-03-30 08:21:00,
2013-03-30 03:32:00,32.0,25.0,30.15,East,90,0.0,1.0,74,0.00,,,0.00,,2013-03-30 08:32:00,
2013-03-30 03:42:00,32.0,25.0,30.15,East,90,0.0,1.0,74,0.00,,,0.00,,2013-03-30 08:42:00,
2013-03-30 03:53:00,31.0,24.0,30.15,ESE,107,1.0,5.0,75,0.00,,,0.00,,2013-03-30 08:53:00,
2013-03-30 04:02:00,31.0,24.0,30.14,SE,126,0.0,2.0,75,0.00,,,0.00,,2013-03-30 09:02:00,
2013-03-30 04:12:00,31.0,24.0,30.14,SE,129,0.0,4.0,75,0.00,,,0.00,,2013-03-30 09:12:00,
2013-03-30 04:22:00,31.0,24.0,30.14,SE,129,0.0,4.0,75,0.00,,,0.00,,2013-03-30 09:22:00,
2013-03-30 04:33:00,31.0,24.0,30.13,SE,129,0.0,1.0,75,0.00,,,0.00,,2013-03-30 09:33:00,
2013-03-30 04:42:00,31.0,24.0,30.13,SE,129,0.0,1.0,75,0.00,,,0.00,,2013-03-30 09:42:00,
2013-03-30 04:53:00,31.0,24.0,30.13,SE,129,0.0,2.0,75,0.00,,,0.00,,2013-03-30 09:53:00,
2013-03-30 05:02:00,31.0,24.0,30.13,SE,145,0.0,0.0,75,0.00,,,0.00,,2013-03-30 10:02:00,
2013-03-30 05:13:00,31.0,24.0,30.13,SE,145,0.0,0.0,75,0.00,,,0.00,,2013-03-30 10:13:00,
2013-03-30 05:23:00,31.0,24.0,30.13,SE,146,0.0,1.0,76,0.00,,,0.00,,2013-03-30 10:23:00,
2013-03-30 05:33:00,31.0,24.0,30.12,SE,145,0.0,1.0,76,0.00,,,0.00,,2013-03-30 10:33:00,
2013-03-30 05:42:00,31.0,24.0,30.12,SE,145,0.0,1.0,76,0.00,,,0.00,,2013-03-30 10:42:00,
2013-03-30 05:52:00,31.0,24.0,30.12,SSE,160,0.0,4.0,76,0.00,,,0.00,,2013-03-30 10:52:00,
2013-03-30 06:03:00,32.0,25.0,30.12,South,186,0.0,5.0,76,0.00,,,0.00,,2013-03-30 11:03:00,
2013-03-30 06:12:00,32.0,25.0,30.12,South,186,0.0,5.0,76,0.00,,,0.00,,2013-03-30 11:12:00,
2013-03-30 06:22:00,32.0,25.0,30.11,South,173,1.0,5.0,76,0.00,,,0.00,,2013-03-30 11:22:00,
2013-03-30 06:33:00,32.0,25.0,30.11,SSE,166,0.0,5.0,76,0.00,,,0.00,,2013-03-30 11:33:00,
2013-03-30 06:42:00,32.0,25.0,30.11,SSE,166,0.0,5.0,76,0.00,,,0.00,,2013-03-30 11:42:00,
2013-03-30 06:53:00,32.0,25.0,30.10,SSE,164,0.0,5.0,76,0.00,,,0.00,,2013-03-30 11:53:00,
2013-03-30 07:02:00,32.0,25.0,30.10,SSE,165,0.0,2.0,76,0.00,,,0.00,,2013-03-30 12:02:00,
2013-03-30 07:12:00,32.0,25.0,30.10,SSE,165,0.0,2.0,76,0.00,,,0.00,,2013-03-30 12:12:00,
2013-03-30 07:22:00,32.0,25.0,30.09,South,188,1.0,4.0,76,0.00,,,0.00,,2013-03-30 12:22:00,
2013-03-30 07:32:00,32.0,25.0,30.09,SSE,161,0.0,8.0,76,0.00,,,0.00,,2013-03-30 12:32:00,
2013-03-30 07:42:00,32.0,25.0,30.09,SSE,161,0.0,8.0,76,0.00,,,0.00,,2013-03-30 12:42:00,
2013-03-30 07:53:00,32.0,25.0,30.09,South,178,1.0,4.0,76,0.00,,,0.00,,2013-03-30 12:53:00,
2013-03-30 08:02:00,33.0,26.0,30.09,South,172,0.0,3.0,75,0.00,,,0.00,,2013-03-30 13:02:00,
2013-03-30 08:12:00,33.0,26.0,30.09,South,172,0.0,3.0,75,0.00,,,0.00,,2013-03-30 13:12:00,
2013-03-30 08:22:00,34.0,26.0,30.09,South,191,3.0,6.0,73,0.00,,,0.00,,2013-03-30 13:22:00,
2013-03-30 08:32:00,36.0,28.0,30.07,South,179,2.0,8.0,71,0.00,,,0.00,,2013-03-30 13:32:00,
2013-03-30 08:42:00,36.0,28.0,30.07,South,179,2.0,8.0,71,0.00,,,0.00,,2013-03-30 13:42:00,
2013-03-30 08:52:00,36.0,26.0,30.06,South,183,3.0,6.0,68,0.00,,,0.00,,2013-03-30 13:52:00,
2013-03-30 09:02:00,37.0,27.0,30.06,South,171,3.0,8.0,67,0.00,,,0.00,,2013-03-30 14:02:00,
2013-03-30 09:11:00,37.0,27.0,30.06,South,171,3.0,8.0,67,0.00,,,0.00,,2013-03-30 14:11:00,
2013-03-30 09:22:00,37.0,27.0,30.06,SSE,167,3.0,5.0,67,0.00,,,0.00,,2013-03-30 14:22:00,
2013-03-30 09:32:00,38.0,27.0,30.05,South,188,2.0,7.0,65,0.00,,,0.00,,2013-03-30 14:32:00,
2013-03-30 09:42:00,38.0,27.0,30.05,South,188,2.0,7.0,65,0.00,,,0.00,,2013-03-30 14:42:00,
2013-03-30 09:52:00,38.0,27.0,30.04,South,188,6.0,9.0,64,0.00,,,0.00,,2013-03-30 14:52:00,
2013-03-30 10:02:00,39.0,27.0,30.03,South,184,7.0,9.0,63,0.00,,,0.00,,2013-03-30 15:02:00,
2013-03-30 10:12:00,39.0,27.0,30.03,South,184,7.0,9.0,63,0.00,,,0.00,,2013-03-30 15:12:00,
2013-03-30 10:22:00,40.0,28.0,30.03,SSW,209,4.0,9.0,63,0.00,,,0.00,,2013-03-30 15:22:00,
2013-03-30 10:33:00,40.0,28.0,30.02,SSW,192,4.0,11.0,63,0.00,,,0.00,,2013-03-30 15:33:00,
2013-03-30 10:43:00,40.0,28.0,30.02,SSW,192,4.0,11.0,63,0.00,,,0.00,,2013-03-30 15:43:00,
2013-03-30 10:52:00,40.0,28.0,30.02,South,178,6.0,9.0,63,0.00,,,0.00,,2013-03-30 15:52:00,
2013-03-30 11:03:00,41.0,30.0,30.02,South,188,3.0,7.0,64,0.00,,,0.00,,2013-03-30 16:03:00,
2013-03-30 11:13:00,41.0,30.0,30.00,SSW,201,5.0,11.0,64,0.00,,,0.00,,2013-03-30 16:13:00,
2013-03-30 11:23:00,41.0,30.0,30.00,SSW,201,5.0,11.0,64,0.00,,,0.00,,2013-03-30 16:23:00,
2013-03-30 11:33:00,42.0,31.0,30.00,SSW,196,4.0,9.0,64,0.00,,,0.00,,2013-03-30 16:33:00,
2013-03-30 11:43:00,42.0,31.0,30.00,SSW,196,4.0,9.0,64,0.00,,,0.00,,2013-03-30 16:43:00,
2013-03-30 11:52:00,42.0,30.0,29.99,South,188,6.0,11.0,63,0.00,,,0.00,,2013-03-30 16:52:00,
2013-03-30 12:02:00,42.0,31.0,29.99,South,187,7.0,11.0,64,0.00,,,0.00,,2013-03-30 17:02:00,
2013-03-30 12:13:00,42.0,31.0,29.99,South,187,7.0,11.0,64,0.00,,,0.00,,2013-03-30 17:13:00,
2013-03-30 12:22:00,43.0,32.0,29.98,SSE,163,6.0,13.0,64,0.00,,,0.00,,2013-03-30 17:22:00,
2013-03-30 12:32:00,43.0,32.0,29.98,South,179,5.0,11.0,65,0.00,,,0.00,,2013-03-30 17:32:00,
2013-03-30 12:42:00,43.0,32.0,29.98,South,179,5.0,11.0,65,0.00,,,0.00,,2013-03-30 17:42:00,
2013-03-30 12:52:00,43.0,32.0,29.96,South,169,6.0,11.0,66,0.00,,,0.00,,2013-03-30 17:52:00,
2013-03-30 13:03:00,45.0,34.0,29.96,SSW,207,6.0,15.0,66,0.00,,,0.00,,2013-03-30 18:03:00,
2013-03-30 13:12:00,46.0,36.0,29.95,South,188,5.0,11.0,67,0.00,,,0.00,,2013-03-30 18:12:00,
2013-03-30 13:22:00,46.0,36.0,29.95,South,188,5.0,11.0,67,0.00,,,0.00,,2013-03-30 18:22:00,
2013-03-30 13:32:00,47.0,36.0,29.95,South,169,7.0,13.0,66,0.00,,,0.00,,2013-03-30 18:32:00,
2013-03-30 13:42:00,47.0,36.0,29.95,South,169,7.0,13.0,66,0.00,,,0.00,,2013-03-30 18:42:00,
2013-03-30 13:53:00,47.0,36.0,29.94,SSE,166,8.0,13.0,65,0.00,,,0.00,,2013-03-30 18:53:00,
2013-03-30 14:02:00,48.0,37.0,29.93,SSW,213,11.0,14.0,66,0.00,,,0.00,,2013-03-30 19:02:00,
2013-03-30 14:13:00,48.0,37.0,29.93,SSW,213,11.0,14.0,66,0.00,,,0.00,,2013-03-30 19:13:00,
2013-03-30 14:22:00,50.0,39.0,29.92,South,176,6.0,13.0,65,0.00,,,0.00,,2013-03-30 19:22:00,
2013-03-30 14:32:00,50.0,39.0,29.91,SSW,192,7.0,12.0,65,0.00,,,0.00,,2013-03-30 19:32:00,
2013-03-30 14:42:00,50.0,39.0,29.91,SSW,192,7.0,12.0,65,0.00,,,0.00,,2013-03-30 19:42:00,
2013-03-30 14:53:00,50.0,39.0,29.90,South,183,9.0,14.0,65,0.00,,,0.00,,2013-03-30 19:53:00,
2013-03-30 15:02:00,51.0,39.0,29.89,South,172,8.0,14.0,63,0.00,,,0.00,,2013-03-30 20:02:00,
2013-03-30 15:12:00,51.0,39.0,29.89,South,172,8.0,14.0,63,0.00,,,0.00,,2013-03-30 20:12:00,
2013-03-30 15:22:00,51.0,38.0,29.90,South,182,8.0,16.0,62,0.00,,,0.00,,2013-03-30 20:22:00,
2013-03-30 15:32:00,50.0,39.0,29.89,SSW,194,7.0,14.0,65,0.00,,,0.00,,2013-03-30 20:32:00,
2013-03-30 15:42:00,50.0,39.0,29.89,SSW,194,7.0,14.0,65,0.00,,,0.00,,2013-03-30 20:42:00,
2013-03-30 15:53:00,49.0,38.0,29.88,SSW,200,8.0,11.0,65,0.00,,,0.00,,2013-03-30 20:53:00,
2013-03-30 16:02:00,49.0,39.0,29.88,SSW,198,5.0,14.0,67,0.00,,,0.00,,2013-03-30 21:02:00,
2013-03-30 16:12:00,49.0,39.0,29.88,SSW,198,5.0,14.0,67,0.00,,,0.00,,2013-03-30 21:12:00,
2013-03-30 16:22:00,48.0,38.0,29.87,SSW,206,5.0,8.0,69,0.00,,,0.00,,2013-03-30 21:22:00,
2013-03-30 16:33:00,48.0,38.0,29.86,SSW,200,2.0,6.0,69,0.00,,,0.00,,2013-03-30 21:33:00,
2013-03-30 16:43:00,48.0,38.0,29.86,SSW,200,2.0,6.0,69,0.00,,,0.00,,2013-03-30 21:43:00,
2013-03-30 16:53:00,48.0,39.0,29.85,SSW,209,3.0,7.0,70,0.00,,,0.00,,2013-03-30 21:53:00,
2013-03-30 17:03:00,48.0,39.0,29.85,SSW,200,5.0,9.0,71,0.00,,,0.00,,2013-03-30 22:03:00,
2013-03-30 17:13:00,48.0,39.0,29.85,SSW,200,5.0,9.0,71,0.00,,,0.00,,2013-03-30 22:13:00,
2013-03-30 17:23:00,48.0,39.0,29.85,South,184,4.0,8.0,71,0.00,,,0.00,,2013-03-30 22:23:00,
2013-03-30 17:33:00,47.0,38.0,29.85,SSW,199,4.0,9.0,72,0.00,,,0.00,,2013-03-30 22:33:00,
2013-03-30 17:43:00,47.0,38.0,29.85,SSW,199,4.0,9.0,72,0.00,,,0.00,,2013-03-30 22:43:00,
2013-03-30 17:53:00,47.0,39.0,29.84,SSW,204,3.0,8.0,73,0.00,,,0.00,,2013-03-30 22:53:00,
2013-03-30 18:02:00,47.0,39.0,29.84,SSW,206,3.0,7.0,73,0.00,,,0.00,,2013-03-30 23:02:00,
2013-03-30 18:12:00,47.0,39.0,29.84,SSW,206,3.0,7.0,73,0.00,,,0.00,,2013-03-30 23:12:00,
2013-03-30 18:22:00,46.0,39.0,29.83,South,190,2.0,6.0,75,0.00,,,0.00,,2013-03-30 23:22:00,
2013-03-30 18:32:00,46.0,39.0,29.83,SSW,193,2.0,6.0,76,0.00,,,0.00,,2013-03-30 23:32:00,
2013-03-30 18:42:00,46.0,39.0,29.83,SSW,193,2.0,6.0,76,0.00,,,0.00,,2013-03-30 23:42:00,
2013-03-30 18:53:00,45.0,39.0,29.83,SSW,213,0.0,2.0,78,0.00,,,0.00,,2013-03-30 23:53:00,
2013-03-30 19:02:00,45.0,39.0,29.83,SSW,213,0.0,0.0,79,0.00,,,0.00,,2013-03-31 00:02:00,
2013-03-30 19:12:00,45.0,39.0,29.83,SSW,213,0.0,0.0,79,0.00,,,0.00,,2013-03-31 00:12:00,
2013-03-30 19:22:00,45.0,39.0,29.83,SSW,213,0.0,0.0,80,0.00,,,0.00,,2013-03-31 00:22:00,
2013-03-30 19:32:00,44.0,39.0,29.83,SSW,213,0.0,0.0,81,0.00,,,0.00,,2013-03-31 00:32:00,
2013-03-30 19:42:00,44.0,39.0,29.83,SSW,213,0.0,0.0,81,0.00,,,0.00,,2013-03-31 00:42:00,
2013-03-30 19:53:00,44.0,39.0,29.82,SSW,213,0.0,0.0,82,0.00,,,0.00,,2013-03-31 00:53:00,
2013-03-30 20:02:00,44.0,39.0,29.82,SSW,213,0.0,1.0,84,0.00,,,0.00,,2013-03-31 01:02:00,
2013-03-30 20:12:00,44.0,39.0,29.82,SSW,213,0.0,1.0,84,0.00,,,0.00,,2013-03-31 01:12:00,
2013-03-30 20:22:00,43.0,39.0,29.82,SSW,196,2.0,5.0,85,0.01,,,0.01,,2013-03-31 01:22:00,
2013-03-30 20:32:00,43.0,39.0,29.81,SSW,194,0.0,1.0,85,0.01,,,0.01,,2013-03-31 01:32:00,
2013-03-30 20:42:00,43.0,39.0,29.81,SSW,194,0.0,1.0,85,0.01,,,0.01,,2013-03-31 01:42:00,
2013-03-30 20:53:00,43.0,39.0,29.81,SSW,194,0.0,1.0,86,0.02,,,0.02,,2013-03-31 01:53:00,
2013-03-30 21:02:00,43.0,39.0,29.81,SSW,194,0.0,1.0,87,0.02,,,0.02,,2013-03-31 02:02:00,
2013-03-30 21:12:00,43.0,39.0,29.81,SSW,194,0.0,1.0,87,0.02,,,0.02,,2013-03-31 02:12:00,
2013-03-30 21:22:00,43.0,39.0,29.80,SSW,200,2.0,4.0,87,0.01,,,0.02,,2013-03-31 02:22:00,
2013-03-30 21:32:00,43.0,40.0,29.81,SSW,205,0.0,3.0,88,0.01,,,0.02,,2013-03-31 02:32:00,
2013-03-30 21:42:00,43.0,40.0,29.81,SSW,205,0.0,3.0,88,0.01,,,0.02,,2013-03-31 02:42:00,
2013-03-30 21:52:00,42.0,39.0,29.81,SSW,195,0.0,2.0,88,-99.99,,,-99.99,,2013-03-31 02:52:00,
2013-03-30 22:02:00,43.0,40.0,29.80,SW,227,2.0,5.0,88,-99.99,,,-99.99,,2013-03-31 03:02:00,
2013-03-30 22:12:00,43.0,40.0,29.80,SW,227,2.0,5.0,88,-99.99,,,-99.99,,2013-03-31 03:12:00,
2013-03-30 22:22:00,43.0,40.0,29.80,SSW,205,3.0,6.0,88,-99.99,,,-99.99,,2013-03-31 03:22:00,
2013-03-30 22:33:00,43.0,40.0,29.80,SW,223,2.0,8.0,88,-99.99,,,-99.99,,2013-03-31 03:33:00,
2013-03-30 22:43:00,43.0,40.0,29.80,SW,223,2.0,8.0,88,-99.99,,,-99.99,,2013-03-31 03:43:00,
2013-03-30 22:54:00,43.0,40.0,29.80,SSW,206,3.0,7.0,88,0.00,,,-99.99,,2013-03-31 03:54:00,
2013-03-30 23:02:00,42.0,-99.9,29.80,SSW,211,1.0,6.0,88,0.00,,,-99.99,,2013-03-31 04:02:00,
2013-03-30 23:13:00,42.0,39.0,29.80,SSW,211,1.0,6.0,88,0.00,,,-99.99,,2013-03-31 04:13:00,
2013-03-30 23:23:00,42.0,39.0,29.79,SSW,192,3.0,5.0,89,0.00,,,-99.99,,2013-03-31 04:23:00,
2013-03-30 23:32:00,42.0,39.0,29.79,SSW,209,0.0,5.0,89,0.00,,,-99.99,,2013-03-31 04:32:00,
2013-03-30 23:42:00,42.0,39.0,29.79,SSW,209,0.0,5.0,89,0.00,,,-99.99,,2013-03-31 04:42:00,
2013-03-30 23:52:00,42.0,39.0,29.79,SW,230,1.0,5.0,90,0.00,,,-99.99,,2013-03-31 04:52:00,